QPF
0.04 0.03 0.02 0.03 0.04 0.04 0.03 0.03 0.03 0.02 0.02 0.04 0.03 0.02 0.03 0.04 0.05 0.03 0.04 0.03 0.01 0.01 0.01 0.01 0.01 0.01 0.01 0.01 0.01 0.01 0.01 0.01 0.01 0.00 0.01 0.01 0.01 0.02 0.02 0.01 0.01 0.01 0.01
0.02 0.02 0.02 0.02 0.03 0.04 0.04 0.05 0.05 0.04 0.04 0.04 0.03 0.02 0.02 0.04 0.06 0.05 0.05 0.04 0.02 0.01 0.01 0.01 0.01 0.03 0.03 0.02 0.01 0.01 0.01 0.01 0.01 0.00 0.00 0.00 0.01 0.01 0.01 0.01 0.00 0.00 0.01
0.01 0.01 0.02 0.02 0.03 0.03 0.03 0.04 0.05 0.04 0.03 0.03 0.02 0.02 0.02 0.03 0.04 0.05 0.06 0.05 0.02 0.01 0.01 0.01 0.01 0.02 0.04 0.03 0.02 0.02 0.02 0.02 0.02 0.01 0.00 0.00 0.01 0.01 0.00 0.00 0.00 0.00 0.00
0.01 0.01 0.01 0.02 0.03 0.03 0.03 0.04 0.04 0.04 0.04 0.03 0.02 0.02 0.02 0.03 0.04 0.04 0.04 0.05 0.03 0.01 0.01 0.01 0.01 0.02 0.03 0.02 0.02 0.02 0.02 0.03 0.03 0.03 0.02 0.01 0.01 0.01 0.00 0.00 0.00 0.00 0.00
0.01 0.01 0.01 0.01 0.03 0.04 0.03 0.03 0.04 0.03 0.03 0.04 0.04 0.04 0.04 0.04 0.03 0.04 0.03 0.03 0.03 0.02 0.01 0.01 0.02 0.02 0.02 0.02 0.02 0.01 0.01 0.02 0.02 0.02 0.02 0.01 0.01 0.01 0.00 0.00 0.00 0.00 0.00
0.01 0.01 0.01 0.01 0.02 0.03 0.03 0.03 0.04 0.04 0.03 0.03 0.04 0.05 0.05 0.04 0.04 0.03 0.03 0.02 0.02 0.02 0.02 0.02 0.01 0.01 0.01 0.01 0.01 0.01 0.01 0.02 0.02 0.02 0.02 0.01 0.01 0.01 0.00 0.00 0.00 0.00 0.00
0.01 0.01 0.01 0.02 0.02 0.02 0.04 0.05 0.04 0.04 0.04 0.03 0.04 0.04 0.05 0.04 0.04 0.03 0.03 0.02 0.02 0.02 0.02 0.02 0.01 0.01 0.01 0.00 0.01 0.01 0.01 0.02 0.02 0.02 0.02 0.01 0.01 0.01 0.01 0.01 0.00 0.00 0.00
0.01 0.01 0.01 0.02 0.03 0.03 0.03 0.05 0.04 0.04 0.06 0.07 0.05 0.04 0.04 0.03 0.02 0.02 0.02 0.01 0.01 0.02 0.02 0.02 0.01 0.01 0.01 0.01 0.02 0.02 0.01 0.02 0.02 0.01 0.01 0.01 0.01 0.01 0.01 0.01 0.01 0.00 0.00
0.02 0.02 0.01 0.02 0.03 0.03 0.02 0.03 0.04 0.04 0.05 0.05 0.04 0.03 0.02 0.02 0.02 0.01 0.02 0.01 0.01 0.02 0.02 0.02 0.01 0.01 0.01 0.02 0.02 0.02 0.02 0.01 0.02 0.01 0.01 0.01 0.01 0.01 0.01 0.01 0.01 0.01 0.00
0.01 0.02 0.02 0.01 0.02 0.03 0.03 0.03 0.05 0.05 0.04 0.04 0.04 0.04 0.03 0.02 0.02 0.02 0.01 0.01 0.01 0.02 0.02 0.02 0.02 0.02 0.02 0.02 0.03 0.03 0.02 0.01 0.01 0.02 0.02 0.01 0.01 0.01 0.01 0.01 0.01 0.01 0.01
0.01 0.03 0.03 0.01 0.02 0.02 0.03 0.04 0.04 0.05 0.04 0.05 0.05 0.05 0.04 0.03 0.03 0.03 0.02 0.01 0.01 0.02 0.02 0.02 0.02 0.03 0.02 0.02 0.02 0.02 0.02 0.02 0.02 0.02 0.02 0.02 0.02 0.01 0.01 0.00 0.00 0.00 0.00
0.01 0.02 0.04 0.02 0.02 0.01 0.02 0.02 0.03 0.04 0.04 0.04 0.05 0.05 0.05 0.03 0.02 0.02 0.03 0.02 0.02 0.02 0.02 0.02 0.02 0.03 0.02 0.02 0.02 0.02 0.03 0.03 0.03 0.03 0.02 0.02 0.02 0.01 0.01 0.00 0.00 0.00 0.00
0.01 0.01 0.02 0.02 0.02 0.02 0.02 0.02 0.02 0.03 0.03 0.04 0.04 0.05 0.04 0.03 0.02 0.02 0.02 0.02 0.02 0.02 0.02 0.02 0.03 0.02 0.02 0.02 0.02 0.03 0.03 0.04 0.04 0.04 0.03 0.02 0.02 0.01 0.01 0.01 0.01 0.00 0.00
0.01 0.01 0.01 0.01 0.02 0.02 0.02 0.02 0.02 0.02 0.02 0.03 0.04 0.05 0.05 0.03 0.03 0.03 0.03 0.03 0.03 0.02 0.03 0.03 0.02 0.02 0.02 0.01 0.02 0.02 0.03 0.03 0.03 0.03 0.02 0.02 0.02 0.02 0.02 0.01 0.01 0.01 0.00
0.01 0.02 0.02 0.02 0.02 0.02 0.03 0.02 0.02 0.02 0.02 0.03 0.04 0.05 0.05 0.05 0.04 0.04 0.03 0.03 0.03 0.03 0.03 0.03 0.02 0.02 0.02 0.02 0.03 0.03 0.03 0.02 0.02 0.02 0.02 0.02 0.02 0.02 0.02 0.02 0.01 0.01 0.01
0.01 0.02 0.02 0.03 0.02 0.03 0.03 0.03 0.04 0.03 0.03 0.04 0.05 0.06 0.06 0.07 0.07 0.06 0.04 0.03 0.04 0.04 0.03 0.02 0.02 0.02 0.02 0.02 0.03 0.02 0.02 0.02 0.02 0.02 0.02 0.03 0.03 0.03 0.03 0.02 0.02 0.01 0.01
0.02 0.02 0.02 0.02 0.03 0.03 0.03 0.04 0.04 0.05 0.04 0.04 0.05 0.05 0.05 0.06 0.06 0.05 0.05 0.04 0.04 0.04 0.03 0.02 0.02 0.01 0.01 0.02 0.03 0.02 0.02 0.02 0.02 0.03 0.03 0.03 0.03 0.03 0.03 0.03 0.03 0.02 0.02
0.03 0.03 0.02 0.02 0.02 0.03 0.03 0.03 0.03 0.04 0.04 0.03 0.04 0.04 0.03 0.03 0.03 0.03 0.03 0.02 0.03 0.03 0.03 0.03 0.02 0.02 0.02 0.02 0.02 0.03 0.02 0.02 0.02 0.02 0.02 0.03 0.03 0.03 0.03 0.04 0.04 0.03 0.03
0.02 0.03 0.03 0.02 0.02 0.02 0.02 0.02 0.02 0.03 0.03 0.03 0.03 0.05 0.04 0.03 0.02 0.02 0.01 0.01 0.01 0.02 0.02 0.02 0.02 0.02 0.02 0.02 0.03 0.03 0.03 0.03 0.02 0.02 0.02 0.02 0.02 0.03 0.04 0.04 0.04 0.04 0.04
0.02 0.03 0.02 0.02 0.02 0.02 0.02 0.02 0.02 0.02 0.02 0.02 0.03 0.05 0.05 0.03 0.02 0.01 0.01 0.01 0.01 0.01 0.01 0.01 0.01 0.02 0.02 0.03 0.03 0.04 0.04 0.03 0.03 0.02 0.02 0.02 0.02 0.02 0.03 0.04 0.04 0.04 0.04
0.02 0.01 0.01 0.01 0.01 0.01 0.01 0.01 0.01 0.02 0.02 0.02 0.02 0.04 0.05 0.03 0.02 0.02 0.01 0.01 0.01 0.01 0.01 0.02 0.02 0.02 0.02 0.02 0.03 0.03 0.03 0.03 0.03 0.02 0.02 0.02 0.02 0.02 0.03 0.04 0.04 0.04 0.03
0.01 0.01 0.01 0.00 0.00 0.00 0.00 0.01 0.01 0.01 0.01 0.02 0.02 0.02 0.03 0.03 0.03 0.03 0.02 0.02 0.01 0.01 0.02 0.02 0.02 0.02 0.02 0.02 0.02 0.03 0.03 0.03 0.03 0.02 0.01 0.01 0.01 0.02 0.02 0.03 0.04 0.05 0.04
0.01 0.01 0.00 0.00 0.00 0.00 0.00 0.00 0.00 0.01 0.01 0.01 0.01 0.01 0.02 0.02 0.02 0.02 0.01 0.02 0.02 0.02 0.02 0.02 0.02 0.02 0.01 0.01 0.02 0.02 0.03 0.03 0.02 0.02 0.02 0.01 0.01 0.02 0.02 0.02 0.03 0.04 0.04
0.01 0.01 0.01 0.00 0.00 0.00 0.00 0.01 0.01 0.01 0.01 0.01 0.01 0.01 0.01 0.01 0.02 0.02 0.01 0.02 0.02 0.02 0.03 0.03 0.03 0.03 0.02 0.02 0.03 0.02 0.02 0.03 0.03 0.02 0.02 0.02 0.02 0.02 0.02 0.02 0.03 0.03 0.03
0.01 0.01 0.01 0.01 0.01 0.00 0.00 0.01 0.01 0.01 0.01 0.01 0.01 0.01 0.01 0.01 0.01 0.01 0.01 0.01 0.01 0.02 0.02 0.02 0.03 0.03 0.03 0.03 0.04 0.04 0.04 0.04 0.04 0.04 0.02 0.02 0.02 0.02 0.02 0.02 0.02 0.02 0.03
0.01 0.01 0.01 0.01 0.01 0.01 0.01 0.01 0.02 0.01 0.01 0.01 0.01 0.01 0.02 0.01 0.01 0.01 0.01 0.01 0.01 0.01 0.01 0.01 0.02 0.03 0.03 0.03 0.04 0.05 0.05 0.04 0.04 0.04 0.03 0.02 0.02 0.02 0.02 0.02 0.03 0.03 0.03
MSLP
1018.96 1019.52 1020.12 1020.73 1021.31 1021.83 1022.27 1022.65 1022.97 1023.25 1023.52 1023.78 1024.05 1024.32 1024.59 1024.83 1025.03 1025.18 1025.28 1025.32 1025.30 1025.26 1025.18 1025.12 1025.07 1025.07 1025.13 1025.29 1025.54 1025.88 1026.30 1026.77 1027.26 1027.72 1028.12 1028.41 1028.56 1028.58 1028.48 1028.27 1027.99 1027.70 1027.42
1018.57 1019.15 1019.78 1020.42 1021.03 1021.59 1022.08 1022.51 1022.88 1023.20 1023.49 1023.78 1024.06 1024.33 1024.60 1024.86 1025.09 1025.29 1025.45 1025.55 1025.60 1025.61 1025.57 1025.51 1025.45 1025.41 1025.42 1025.51 1025.69 1025.97 1026.35 1026.80 1027.30 1027.80 1028.25 1028.61 1028.84 1028.94 1028.91 1028.76 1028.53 1028.26 1028.00
1018.17 1018.78 1019.44 1020.11 1020.75 1021.35 1021.88 1022.34 1022.75 1023.10 1023.41 1023.69 1023.97 1024.24 1024.50 1024.76 1025.01 1025.24 1025.44 1025.61 1025.73 1025.80 1025.82 1025.80 1025.76 1025.72 1025.71 1025.75 1025.89 1026.13 1026.47 1026.90 1027.38 1027.89 1028.36 1028.76 1029.04 1029.19 1029.21 1029.11 1028.93 1028.69 1028.45
1017.76 1018.40 1019.08 1019.78 1020.45 1021.07 1021.63 1022.12 1022.55 1022.92 1023.24 1023.53 1023.79 1024.05 1024.29 1024.54 1024.80 1025.05 1025.28 1025.50 1025.69 1025.82 1025.91 1025.95 1025.96 1025.94 1025.94 1025.98 1026.09 1026.30 1026.60 1026.99 1027.45 1027.94 1028.41 1028.81 1029.11 1029.29 1029.35 1029.29 1029.14 1028.95 1028.74
1017.34 1018.00 1018.69 1019.39 1020.07 1020.70 1021.29 1021.80 1022.26 1022.65 1022.98 1023.27 1023.53 1023.77 1024.01 1024.25 1024.49 1024.75 1025.02 1025.27 1025.51 1025.71 1025.87 1025.98 1026.03 1026.06 1026.09 1026.14 1026.24 1026.42 1026.69 1027.04 1027.46 1027.91 1028.35 1028.73 1029.04 1029.23 1029.31 1029.28 1029.18 1029.03 1028.87
1016.90 1017.55 1018.22 1018.91 1019.58 1020.21 1020.80 1021.34 1021.82 1022.24 1022.60 1022.91 1023.18 1023.42 1023.66 1023.89 1024.13 1024.40 1024.67 1024.96 1025.24 1025.49 1025.71 1025.88 1026.00 1026.08 1026.14 1026.21 1026.31 1026.47 1026.71 1027.02 1027.38 1027.78 1028.18 1028.53 1028.82 1029.01 1029.11 1029.12 1029.07 1028.97 1028.86
1016.46 1017.05 1017.68 1018.32 1018.96 1019.58 1020.17 1020.72 1021.23 1021.68 1022.09 1022.43 1022.74 1023.00 1023.25 1023.49 1023.74 1024.00 1024.29 1024.59 1024.90 1025.19 1025.46 1025.67 1025.85 1025.98 1026.08 1026.17 1026.29 1026.44 1026.65 1026.91 1027.23 1027.57 1027.92 1028.24 1028.50 1028.70 1028.81 1028.86 1028.85 1028.81 1028.76
1016.03 1016.54 1017.08 1017.65 1018.23 1018.81 1019.39 1019.95 1020.49 1020.99 1021.44 1021.85 1022.20 1022.50 1022.78 1023.04 1023.30 1023.57 1023.87 1024.18 1024.50 1024.82 1025.12 1025.38 1025.60 1025.78 1025.92 1026.04 1026.17 1026.32 1026.50 1026.74 1027.01 1027.31 1027.61 1027.90 1028.14 1028.34 1028.48 1028.56 1028.60 1028.62 1028.62
1015.66 1016.05 1016.48 1016.95 1017.45 1017.98 1018.53 1019.10 1019.66 1020.20 1020.70 1021.16 1021.57 1021.92 1022.24 1022.53 1022.81 1023.09 1023.39 1023.71 1024.04 1024.38 1024.70 1024.99 1025.25 1025.47 1025.65 1025.81 1025.95 1026.11 1026.30 1026.51 1026.75 1027.02 1027.30 1027.56 1027.79 1027.99 1028.15 1028.27 1028.35 1028.41 1028.47
1015.42 1015.67 1015.97 1016.32 1016.72 1017.18 1017.69 1018.23 1018.80 1019.37 1019.91 1020.42 1020.87 1021.27 1021.62 1021.93 1022.23 1022.52 1022.82 1023.14 1023.48 1023.83 1024.17 1024.49 1024.79 1025.05 1025.27 1025.47 1025.65 1025.83 1026.02 1026.24 1026.47 1026.72 1026.98 1027.23 1027.47 1027.67 1027.85 1027.99 1028.11 1028.20 1028.29
1015.36 1015.47 1015.63 1015.85 1016.14 1016.51 1016.95 1017.46 1018.01 1018.57 1019.13 1019.65 1020.13 1020.55 1020.92 1021.24 1021.54 1021.84 1022.14 1022.46 1022.80 1023.15 1023.51 1023.86 1024.20 1024.50 1024.77 1025.02 1025.24 1025.46 1025.67 1025.90 1026.14 1026.40 1026.65 1026.90 1027.14 1027.36 1027.54 1027.70 1027.84 1027.95 1028.05
1015.52 1015.49 1015.52 1015.61 1015.79 1016.06 1016.42 1016.86 1017.36 1017.89 1018.42 1018.92 1019.38 1019.79 1020.15 1020.47 1020.75 1021.03 1021.33 1021.64 1021.98 1022.34 1022.72 1023.10 1023.46 1023.81 1024.13 1024.43 1024.70 1024.96 1025.21 1025.47 1025.73 1026.00 1026.26 1026.52 1026.76 1026.98 1027.18 1027.34 1027.48 1027.60 1027.69
1015.92 1015.78 1015.68 1015.66 1015.72 1015.89 1016.15 1016.50 1016.92 1017.37 1017.84 1018.28 1018.69 1019.05 1019.37 1019.64 1019.90 1020.15 1020.42 1020.72 1021.05 1021.41 1021.80 1022.20 1022.60 1022.99 1023.36 1023.70 1024.02 1024.32 1024.61 1024.90 1025.18 1025.47 1025.75 1026.02 1026.26 1026.49 1026.69 1026.85 1026.98 1027.09 1027.17
1016.52 1016.29 1016.10 1015.98 1015.94 1016.01 1016.17 1016.42 1016.73 1017.08 1017.44 1017.79 1018.11 1018.38 1018.62 1018.84 1019.04 1019.25 1019.48 1019.75 1020.07 1020.43 1020.82 1021.23 1021.65 1022.06 1022.46 1022.84 1023.19 1023.53 1023.85 1024.16 1024.47 1024.77 1025.06 1025.34 1025.59 1025.82 1026.01 1026.17 1026.30 1026.39 1026.45
1017.26 1016.96 1016.71 1016.52 1016.41 1016.39 1016.45 1016.59 1016.79 1017.02 1017.26 1017.49 1017.69 1017.86 1018.01 1018.14 1018.28 1018.43 1018.62 1018.85 1019.14 1019.48 1019.86 1020.26 1020.67 1021.09 1021.49 1021.87 1022.24 1022.58 1022.92 1023.24 1023.56 1023.87 1024.17 1024.45 1024.71 1024.94 1025.13 1025.29 1025.40 1025.48 1025.53
1018.03 1017.72 1017.44 1017.21 1017.05 1016.97 1016.95 1016.99 1017.08 1017.19 1017.31 1017.41 1017.50 1017.56 1017.60 1017.65 1017.70 1017.79 1017.93 1018.11 1018.36 1018.66 1018.99 1019.36 1019.74 1020.12 1020.50 1020.85 1021.20 1021.53 1021.85 1022.17 1022.48 1022.78 1023.08 1023.37 1023.63 1023.86 1024.05 1024.21 1024.32 1024.39 1024.44
1018.74 1018.45 1018.18 1017.95 1017.77 1017.65 1017.58 1017.55 1017.55 1017.56 1017.56 1017.55 1017.53 1017.49 1017.44 1017.40 1017.38 1017.41 1017.48 1017.61 1017.79 1018.02 1018.30 1018.60 1018.91 1019.22 1019.53 1019.83 1020.12 1020.41 1020.69 1020.98 1021.27 1021.56 1021.85 1022.13 1022.39 1022.62 1022.82 1022.98 1023.10 1023.18 1023.22
1019.33 1019.08 1018.84 1018.65 1018.48 1018.36 1018.26 1018.19 1018.13 1018.06 1017.98 1017.88 1017.76 1017.64 1017.51 1017.40 1017.32 1017.27 1017.28 1017.34 1017.45 1017.61 1017.79 1018.00 1018.21 1018.43 1018.64 1018.85 1019.06 1019.27 1019.49 1019.73 1019.98 1020.25 1020.53 1020.80 1021.06 1021.30 1021.51 1021.67 1021.80 1021.89 1021.95
1019.76 1019.57 1019.40 1019.25 1019.12 1019.02 1018.92 1018.83 1018.73 1018.61 1018.47 1018.31 1018.13 1017.94 1017.75 1017.58 1017.45 1017.34 1017.29 1017.28 1017.30 1017.36 1017.44 1017.53 1017.63 1017.72 1017.82 1017.92 1018.02 1018.15 1018.30 1018.48 1018.69 1018.92 1019.18 1019.44 1019.70 1019.94 1020.16 1020.34 1020.48 1020.58 1020.66
1020.04 1019.92 1019.81 1019.72 1019.64 1019.57 1019.49 1019.39 1019.27 1019.12 1018.94 1018.74 1018.51 1018.28 1018.06 1017.85 1017.66 1017.51 1017.39 1017.31 1017.25 1017.21 1017.17 1017.14 1017.11 1017.08 1017.05 1017.04 1017.04 1017.07 1017.14 1017.26 1017.42 1017.62 1017.85 1018.10 1018.36 1018.60 1018.82 1019.01 1019.17 1019.29 1019.38
1020.20 1020.14 1020.10 1020.06 1020.02 1019.98 1019.91 1019.81 1019.68 1019.50 1019.30 1019.06 1018.81 1018.55 1018.29 1018.05 1017.83 1017.63 1017.46 1017.31 1017.17 1017.03 1016.90 1016.75 1016.60 1016.45 1016.31 1016.18 1016.09 1016.04 1016.04 1016.09 1016.21 1016.37 1016.58 1016.81 1017.05 1017.29 1017.51 1017.70 1017.87 1018.00 1018.11
1020.30 1020.28 1020.28 1020.28 1020.26 1020.23 1020.15 1020.04 1019.88 1019.69 1019.45 1019.19 1018.90 1018.62 1018.34 1018.07 1017.82 1017.59 1017.38 1017.17 1016.96 1016.74 1016.52 1016.28 1016.03 1015.78 1015.54 1015.33 1015.16 1015.03 1014.98 1014.98 1015.06 1015.18 1015.36 1015.57 1015.79 1016.02 1016.22 1016.42 1016.58 1016.73 1016.85
1020.37 1020.37 1020.38 1020.38 1020.36 1020.30 1020.20 1020.05 1019.85 1019.62 1019.34 1019.04 1018.73 1018.42 1018.12 1017.83 1017.56 1017.30 1017.05 1016.80 1016.54 1016.27 1015.98 1015.67 1015.35 1015.04 1014.74 1014.46 1014.23 1014.07 1013.96 1013.93 1013.96 1014.06 1014.20 1014.38 1014.57 1014.77 1014.95 1015.13 1015.29 1015.43 1015.56
1020.43 1020.42 1020.40 1020.37 1020.31 1020.20 1020.05 1019.84 1019.58 1019.29 1018.97 1018.62 1018.28 1017.94 1017.62 1017.31 1017.02 1016.74 1016.47 1016.20 1015.91 1015.60 1015.27 1014.93 1014.58 1014.22 1013.88 1013.58 1013.32 1013.12 1012.99 1012.92 1012.92 1012.98 1013.08 1013.22 1013.37 1013.52 1013.68 1013.82 1013.96 1014.10 1014.23
1020.46 1020.41 1020.34 1020.25 1020.12 1019.94 1019.71 1019.43 1019.11 1018.75 1018.37 1017.98 1017.60 1017.24 1016.89 1016.57 1016.27 1015.98 1015.70 1015.41 1015.11 1014.79 1014.45 1014.09 1013.72 1013.35 1013.00 1012.69 1012.42 1012.20 1012.05 1011.95 1011.92 1011.94 1011.99 1012.07 1012.17 1012.27 1012.38 1012.49 1012.60 1012.71 1012.84
1020.44 1020.32 1020.19 1020.02 1019.81 1019.55 1019.23 1018.88 1018.48 1018.06 1017.63 1017.20 1016.79 1016.40 1016.04 1015.71 1015.40 1015.10 1014.82 1014.52 1014.22 1013.89 1013.55 1013.19 1012.82 1012.46 1012.11 1011.79 1011.51 1011.29 1011.12 1011.00 1010.93 1010.90 1010.90 1010.93 1010.96 1011.01 1011.06 1011.11 1011.18 1011.27 1011.38
Thickness
5663 5662 5661 5660 5660 5659 5657 5656 5655 5655 5655 5654 5654 5653 5652 5652 5651 5649 5648 5646 5645 5644 5644 5643 5642 5641 5640 5639 5638 5637 5636 5634 5631 5630 5630 5632 5633 5633 5634 5634 5634 5634 5634
5659 5657 5656 5655 5654 5653 5653 5652 5651 5650 5650 5650 5649 5648 5647 5647 5646 5644 5643 5642 5641 5640 5639 5639 5638 5637 5636 5635 5634 5633 5632 5631 5629 5627 5626 5626 5627 5627 5628 5628 5629 5629 5629
5654 5653 5651 5649 5648 5648 5648 5647 5646 5646 5645 5645 5644 5643 5642 5642 5641 5640 5639 5638 5637 5636 5635 5634 5633 5632 5631 5630 5629 5629 5627 5627 5625 5623 5621 5620 5620 5621 5621 5622 5622 5623 5623
5649 5648 5646 5644 5643 5642 5642 5642 5641 5640 5639 5639 5639 5638 5638 5637 5636 5635 5633 5632 5631 5631 5630 5630 5629 5628 5627 5626 5625 5624 5623 5621 5619 5618 5616 5615 5614 5614 5615 5615 5615 5616 5616
5643 5642 5641 5640 5639 5637 5636 5636 5635 5634 5634 5633 5632 5632 5631 5630 5630 5629 5628 5627 5626 5625 5625 5624 5624 5624 5624 5623 5623 5620 5618 5616 5614 5612 5611 5610 5609 5609 5609 5609 5609 5609 5610
5638 5636 5636 5634 5633 5631 5630 5629 5628 5627 5627 5626 5625 5624 5624 5625 5625 5625 5623 5622 5621 5619 5619 5618 5618 5619 5619 5619 5619 5618 5616 5613 5611 5609 5607 5606 5606 5605 5604 5604 5602 5602 5603
5632 5631 5629 5628 5626 5625 5624 5622 5620 5619 5619 5618 5618 5617 5617 5617 5618 5619 5618 5616 5615 5614 5613 5612 5613 5613 5613 5612 5612 5612 5611 5611 5610 5608 5605 5604 5603 5603 5601 5599 5597 5597 5598
5626 5624 5622 5621 5619 5618 5616 5615 5613 5613 5612 5611 5611 5610 5610 5611 5612 5612 5611 5610 5608 5607 5607 5606 5606 5606 5606 5606 5605 5604 5604 5604 5604 5603 5602 5602 5601 5600 5598 5597 5595 5593 5593
5619 5618 5616 5614 5612 5610 5609 5608 5607 5605 5604 5604 5604 5604 5603 5604 5605 5605 5604 5602 5600 5600 5600 5600 5599 5599 5600 5600 5598 5596 5596 5597 5597 5597 5597 5596 5596 5594 5593 5590 5587 5586 5586
5613 5612 5610 5608 5606 5604 5602 5601 5599 5598 5597 5597 5596 5596 5596 5596 5598 5598 5597 5595 5593 5592 5592 5592 5593 5592 5593 5592 5590 5589 5588 5589 5589 5590 5589 5589 5588 5587 5586 5584 5582 5580 5579
5606 5605 5602 5600 5598 5597 5595 5593 5591 5590 5589 5588 5588 5588 5588 5589 5589 5590 5589 5587 5586 5585 5584 5584 5585 5585 5586 5585 5584 5582 5583 5583 5582 5581 5580 5580 5579 5579 5578 5577 5576 5575 5573
5598 5596 5594 5592 5591 5590 5587 5585 5583 5581 5580 5579 5579 5579 5579 5580 5580 5581 5581 5581 5580 5578 5578 5577 5578 5578 5578 5578 5576 5576 5576 5574 5572 5572 5571 5571 5571 5571 5570 5570 5569 5568 5568
5589 5586 5584 5583 5582 5580 5578 5576 5574 5573 5571 5570 5570 5569 5569 5570 5570 5571 5572 5572 5571 5570 5570 5571 5571 5570 5570 5569 5568 5567 5566 5564 5563 5562 5563 5563 5564 5564 5563 5562 5561 5560 5560
5579 5576 5574 5573 5572 5570 5569 5568 5566 5565 5563 5563 5562 5561 5561 5560 5561 5561 5561 5561 5562 5561 5561 5562 5561 5560 5559 5559 5558 5557 5556 5555 5554 5554 5554 5555 5555 5554 5554 5553 5552 5551 5550
5568 5566 5564 5563 5561 5560 5558 5558 5558 5557 5557 5556 5555 5554 5553 5553 5554 5554 5553 5552 5552 5551 5551 5551 5549 5548 5548 5547 5546 5546 5545 5545 5545 5545 5544 5545 5545 5545 5545 5545 5544 5543 5543
5558 5556 5554 5552 5551 5550 5549 5548 5549 5549 5549 5549 5549 5548 5547 5547 5547 5546 5545 5544 5543 5542 5541 5539 5538 5537 5537 5537 5536 5536 5535 5535 5536 5536 5536 5536 5536 5537 5538 5537 5535 5535 5535
5549 5547 5545 5543 5541 5540 5539 5538 5538 5539 5539 5539 5539 5539 5538 5538 5537 5537 5536 5534 5533 5532 5529 5527 5527 5527 5527 5526 5526 5526 5526 5526 5526 5527 5527 5527 5528 5528 5528 5528 5527 5526 5526
5540 5538 5536 5533 5531 5530 5529 5528 5527 5527 5527 5527 5528 5528 5528 5528 5527 5526 5525 5523 5520 5519 5518 5517 5517 5517 5516 5516 5516 5516 5517 5516 5516 5517 5518 5519 5519 5519 5519 5520 5519 5518 5518
5530 5528 5526 5524 5522 5521 5520 5519 5517 5516 5516 5516 5516 5517 5517 5517 5516 5514 5513 5510 5509 5508 5507 5507 5507 5507 5506 5506 5506 5506 5506 5506 5507 5507 5509 5509 5509 5509 5510 5511 5511 5511 5510
5521 5519 5517 5514 5512 5510 5509 5508 5507 5506 5505 5505 5505 5505 5505 5504 5503 5502 5500 5499 5498 5497 5496 5496 5497 5496 5496 5496 5496 5496 5497 5497 5497 5498 5499 5499 5500 5500 5501 5502 5502 5502 5502
5511 5509 5508 5504 5502 5500 5499 5498 5497 5496 5495 5495 5494 5494 5494 5492 5492 5490 5489 5488 5487 5486 5486 5486 5486 5486 5486 5487 5487 5487 5488 5489 5489 5489 5489 5490 5490 5491 5492 5492 5493 5493 5493
5500 5498 5496 5494 5492 5490 5489 5488 5487 5486 5485 5484 5484 5484 5483 5481 5480 5479 5478 5477 5476 5475 5475 5475 5475 5475 5476 5476 5477 5477 5478 5480 5480 5481 5481 5481 5481 5482 5482 5483 5484 5484 5484
5491 5488 5486 5484 5483 5482 5479 5478 5477 5475 5475 5474 5473 5473 5472 5471 5469 5468 5467 5466 5465 5465 5464 5464 5464 5465 5466 5466 5467 5468 5469 5471 5471 5471 5472 5472 5473 5474 5474 5475 5475 5475 5475
5480 5478 5476 5474 5473 5471 5469 5468 5467 5466 5465 5464 5463 5462 5461 5460 5459 5458 5457 5456 5455 5454 5453 5453 5453 5455 5456 5456 5457 5458 5460 5461 5462 5463 5464 5464 5465 5466 5466 5466 5466 5466 5466
5470 5468 5466 5464 5463 5462 5460 5459 5457 5456 5455 5454 5453 5453 5452 5450 5449 5448 5447 5445 5444 5443 5443 5443 5443 5444 5445 5447 5448 5449 5451 5452 5453 5454 5455 5456 5457 5457 5458 5458 5458 5457 5457
5460 5458 5456 5454 5453 5452 5451 5449 5448 5446 5445 5444 5443 5442 5441 5440 5438 5437 5436 5435 5433 5433 5433 5433 5433 5434 5435 5437 5439 5440 5442 5444 5445 5446 5446 5447 5448 5449 5449 5449 5449 5448 5448